Location: Newark
(43.6583°N, 1.6617°E)
Time: 08:38:08
(UTC+00:00)

Vanguard 1 Rocket - Pass Details

Date: 28 August 2019
Orbit: 651 x 4225 km, 34.3° (Epoch: 24 September)

Event Time Altitude Azimuth Distance (km) Brightness Sun altitude
Rises 02:58:06 0° 253° (WSW) 2,964 - -22.3°
Reaches altitude 10° 03:00:31 10° 241° (WSW) 2,058 - -21.9°
Maximum altitude 03:04:20 28° 181° (S) 1,340 - -21.4°
Exits shadow 03:04:43 28° 173° (S) 1,368 8.0 -21.3°
Drops below altitude 10° 03:09:09 10° 123° (ESE) 2,625 10.0 -20.7°
Sets 03:12:41 0° 112° (ESE) 3,982 11.1 -20.2°
